Preview of NWS' New Version of Forecast
This preview is not operational and should not be used for support decisions.
Latest weather observations around

Auburn-Opelika Airport (KAUO)

Using International System of Units (Switch to English Units)
Date/ Time (CST) Wind (kph) Vis. (km) Weather Sky Cond. Temp (°C) Rel. Humidity Wind Chill (°C) Heat Index (°C) Pressure Precip. (cm)
Air Dwpt 6 hour Altimeter (hPa) Sea level (hPa) 1 hr 3 hr 6 hr
Max Min
Notice The following observation data may not be complete
Feb 22 06:08   4.02 Fog/Mist FEW002 BKN044          %              
Feb 22 05:56 ESE 8 4.83 Fog/Mist SCT040 BKN048 17 17     97%     1029.8 1031.1      
Feb 22 04:56 ESE 8 8.05 Fog/Mist FEW042 17 17     100%     1029.1 1030.6      
Feb 22 03:56 SSE 5 9.66 Fog/Mist FEW045 18 17     96%     1028.8 1030.1      
Feb 22 02:56 SSE 9 11.27 Cloudy OVC045 18 18     97%     1028.5 1029.7      
Feb 22 01:56 S 8 9.66 Fog/Mist BKN047 18 17     93%     1028.5 1029.9      
Feb 21 20:56 S 21 16.09 Clear CLR 22 17     71%   22 1027.8 1029.2      
Feb 21 19:56 SSE 13 16.09 Clear CLR 22 17     71%   22 1027.8 1029.3      
Feb 21 18:56 SSE 11 16.09 Partly Cloudy SCT075 23 17     66%   23 1027.4 1028.9      
Feb 21 17:56 SSE 11 16.09 Clear CLR 24 17     64%   24 1027.1 1028.5      
Feb 21 16:56 SSE 15 16.09 Clear CLR 26 17     58%   26 1026.8 1028      
Feb 21 15:56 SSE 18 16.09 Mostly Clear FEW044 27 17     56%   27 1026.4 1027.7      
Feb 21 14:56 S 15 16.09 Partly Cloudy SCT060 26 18     62%   26 1026.4 1027.8      
Feb 21 13:56 SSE 13 16.09 Mostly Cloudy FEW037 BKN065 25 19     69%   25 1027.1 1028.2      
Feb 21 12:56 S 15 16.09 Mostly Cloudy FEW034 SCT045 BKN070 24 19     71%   25 1027.8 1029.2      
Feb 21 12:35 S 13 16.09 Mostly Cloudy SCT020 SCT028 BKN037 24 19     74%   24 1028.1        
Feb 21 11:56 S 11 16.09 Cloudy BKN016 BKN022 OVC043 24 19     76%   24 1029.1 1030.4      
Feb 21 11:25 S 15 16.09 Mostly Cloudy BKN014 BKN023 22 19     83%   22 1029.5        
Feb 21 11:12 S 21 16.09 Mostly Cloudy FEW014 BKN023 23 19     78%   23 1029.5        
Feb 21 10:56 S 17 16.09 Cloudy BKN014 OVC021 22 19     84%   22 1029.8 1031.2      
Feb 21 10:11 S 13 16.09 Cloudy OVC011 22 19     83%   22 1029.8        
Feb 21 09:56 SSE 17 16.09 Cloudy OVC009 21 19     87%     1029.8 1031.3      
Feb 21 09:17 SSE 13 16.09 Cloudy OVC007 20 19     94%     1029.8        
Feb 21 08:56 S 13 16.09 Cloudy OVC005 20 19     93%     1029.8 1031.2      
Feb 21 08:29 S 18 14.48 Cloudy OVC005 19 19     100%     1029.5        
Feb 21 07:56 S 18 9.66 Fog/Mist OVC003 19 19     97%     1029.1 1030.7      
Feb 21 07:13 SSE 17 4.83 Fog/Mist OVC003 19 19     100%     1028.8        
Feb 21 06:56 SSE 15 4.02 Fog/Mist OVC003 19 19     100%     1028.8 1030.2      
Feb 21 06:40 SE 11 3.22 Fog/Mist OVC003 19 19     100%     1028.8        
Feb 21 05:56 SE 9 14.48 Cloudy OVC003 19 18     96%     1028.8 1030.3      
Feb 21 05:20 SE 9 14.48 Cloudy OVC003 18 18     100%     1028.5        
Feb 21 05:04 SE 8 16.09 Cloudy BKN005 OVC027 18 18     100%     1028.5        
Feb 21 04:56 SE 9 16.09 Cloudy SCT005 OVC027 18 18     100%     1028.5 1029.8      
Feb 21 04:36 SE 5 16.09 Mostly Cloudy FEW007 BKN027 18 18     100%     1028.1        
Feb 21 03:56 ESE 8 16.09 Partly Cloudy SCT080 19 18     96%     1028.1 1029.3      
Feb 21 03:19 ESE 9 16.09 Mostly Cloudy SCT022 BKN075 19 18     94%     1027.8        
Feb 21 03:08 ESE 8 16.09 Mostly Cloudy BKN022 BKN075 19 18     94%     1027.8        
Feb 21 02:56 SE 9 16.09 Partly Cloudy FEW024 SCT070 19 18     96%     1028.1 1029.4      
Feb 21 01:56 SE 9 16.09 Mostly Cloudy FEW048 BKN070 19 18     96%     1027.4 1029      
Feb 21 00:56 SE 5 16.09 Mostly Cloudy BKN050 BKN060 19 18     93%     1027.8 1029.1      
Feb 20 23:56 SE 5 16.09 Mostly Clear FEW050 19 18     93%     1027.8 1029.1     0
Feb 20 22:56 SSE 9 16.09 Cloudy OVC035 20 19     93%     1027.4 1029      
Feb 20 22:04 SSE 9 16.09 Mostly Cloudy FEW016 SCT023 BKN037 20 19     94%     1027.4        
Feb 20 21:56 S 9 16.09 Mostly Cloudy FEW015 SCT020 BKN027 20 19     93%     1027.4 1029.1 0    
Feb 20 21:24 S 18 11.27 Rain BKN024 OVC031 20 19     94%     1027.4   0    
Feb 20 20:56 SE 13 16.09 Cloudy FEW033 BKN060 OVC075 21 18     87%     1026.8 1028.5   0  
Feb 20 19:56 SE 11 16.09 Mostly Cloudy SCT031 BKN040 BKN050 21 18     84%     1026.4 1028.1 0    
Feb 20 18:56 S 13 16.09 Light Rain SCT039 BKN049 OVC090 22 19     84%   22 1026.4 1028.1 0    
Feb 20 17:56 ESE 5 16.09 Light Rain BKN046 BKN060 22 18     79%   23 1026.1 1027.8 0   0
Feb 20 16:56 SSE 15 16.09 Mostly Cloudy BKN090 23 18     74%   24 1025.7 1027.4      
Feb 20 15:56 SSE 13 16.09 Mostly Cloudy BKN080 24 18     71%   24 1025.4 1027.1      
Feb 20 15:37 SSE 21 16.09 Cloudy SCT027 OVC080 24 18     69%   24 1025.4        
Feb 20 14:56 SSE 15 16.09 Mostly Cloudy BKN029 BKN038 24 18     71%   24 1025.7 1027.1      
Feb 20 13:56 S 21 16.09 Cloudy OVC024 23 18     74%   24 1026.1 1027.5      
Feb 20 12:56 SE 17 16.09 Cloudy BKN020 BKN025 OVC070 23 18     76%   23 1026.8 1028.2      
Feb 20 11:56 SSE 18 16.09 Cloudy BKN022 OVC028 23 18     73%   23 1027.4 1028.9      
Feb 20 11:10 SSE 15 16.09 Cloudy BKN016 OVC020 22 18     78%   22 1028.1        
Feb 20 10:56 SSE 15 16.09 Cloudy OVC014 21 18     81%     1028.5 1029.9      
Feb 20 10:32 SSE 15 16.09 Cloudy OVC010 20 18     88%     1028.5        
Feb 20 10:08 SSE 13 16.09 Cloudy OVC006 19 18     94%     1028.5        
Feb 20 09:56 SSE 15 16.09 Cloudy OVC004 19 18     93%     1028.5 1030.2      
Feb 20 09:19 SE 13 4.83 Fog/Mist OVC002 18 18     100%     1028.5        
Feb 20 08:56 SSE 17 3.22 Fog/Mist OVC002 18 17     96%     1028.1 1029.8      
Feb 20 08:26 SE 17 4.02 Fog/Mist OVC002 18 17     94%     1028.1        
Feb 20 07:56 SSE 17 11.27 Cloudy OVC004 17 17     97%     1027.8 1029.3      
Feb 20 07:13 SSE 15 16.09 Cloudy OVC004 17 16     94%     1027.4        
Feb 20 06:56 SE 13 16.09 Mostly Cloudy BKN006 17 16     96%     1027.4 1029.1      
Feb 20 06:46 SE 9 16.09 Partly Cloudy SCT008 16 16     100%     1027.4        
Feb 20 05:56 ESE 13 16.09 Mostly Clear FEW050 16 16     97%     1027.1 1028.9      
Feb 20 04:56 SE 11 16.09 Clear CLR 16 15     93%     1027.1 1028.5      
Feb 20 03:56 SE 13 16.09 Clear CLR 16 15     93%     1026.4 1027.8      
Feb 20 02:56 ESE 9 16.09 Clear CLR 17 15     90%     1026.1 1027.5      
Feb 20 01:56 ESE 9 16.09 Clear CLR 17 14     84%     1025.7 1027.3      
Feb 20 00:56 E 8 16.09 Clear CLR 17 14     84%     1026.1 1027.5      
Feb 19 23:56 Calm 16.09 Clear CLR 18 14     76%     1026.1 1027.5      
Feb 19 22:56 ESE 8 16.09 Clear CLR 19 14     73%     1026.1 1027.8      
Feb 19 21:56 SE 5 16.09 Mostly Cloudy BKN060 20 14     68%     1026.1 1027.5      
Feb 19 20:56 SE 9 16.09 Mostly Cloudy BKN050 21 14     68%     1025.7 1027.2      
Feb 19 19:56 SE 8 16.09 Mostly Clear FEW055 21 15     68%     1025.4 1026.9      
Feb 19 18:56 SE 9 16.09 Partly Cloudy SCT065 22 15     66%   22 1024.7 1026.5      
Feb 19 17:56 SSE 11 16.09 Mostly Cloudy SCT050 BKN070 23 16     64%   23 1024.4 1026      
Feb 19 16:56 SSE 17 14.48 Mostly Cloudy BKN065 24 16     60%   24 1024.1 1025.6      
Feb 19 16:46 SSE 13 2.01 Haze FEW055 24 16     61%   24 1024.1        
Feb 19 15:56 S 18 16.09 Partly Cloudy SCT060 24 16     58%   24 1023.7 1025.3      
Feb 19 14:56 S 21 16.09 Mostly Clear FEW040 24 16     60%   24 1024.1 1025.4      
Feb 19 13:56 S 21 16.09 Mostly Cloudy BKN032 BKN041 23 16     64%   23 1024.1 1025.7      
Feb 19 12:56 S 26   Mostly Cloudy SCT020 BKN060 23 17     68%   23 1024.7 1026.2      
Feb 19 11:56 S 18   Cloudy BKN016 OVC022 21 17     78%     1026.4 1027.9      
Feb 19 11:53 S 24   Cloudy BKN016 OVC022 21 17     78%     1026.4        
Feb 19 10:56 S 21   Cloudy OVC012 20 17     81%     1027.1 1028.9      
Feb 19 09:56 SSE 18   Cloudy BKN010 OVC065 19 17     84%     1027.1 1029      
Feb 19 09:22 SSE 17   Cloudy BKN010 OVC060 19 17     88%     1027.1        
Feb 19 08:56 ESE 17   Cloudy OVC008 19 17     87%     1027.1 1028.8      
Feb 19 08:29 SSE 13   Cloudy OVC006 18 17     94%     1026.8        
Feb 19 07:56 SSE 13   Cloudy OVC004 18 17     93%     1026.8 1028.5      
Feb 19 06:56 ESE 9   Cloudy OVC004 17 17     97%     1026.4 1028.2      
Feb 19 06:38 SE 11   Cloudy OVC004 17 17     100%     1026.1        
Feb 19 05:56 SE 11   Cloudy OVC002 17 17     97%     1025.7 1027.7      
Notice The following observation data may not be complete
Jun 12 07:35   16.09 Mostly Cloudy BKN004          %              
Jun 11 03:56 ESE 11 16.09 Clear CLR 22 18     81%   22 1019.7 1020.4      
Jun 08 23:56 Calm 16.09 Clear   20 16     78%     1013.2 1014.4      
Jun 08 19:56 Calm 16.09 Mostly Cloudy BKN050 BKN065 24 16     60%   24 1012.2 1013.2      
Jun 08 14:56 Calm 16.09 Mostly Cloudy SCT055 BKN075 26 14     48%   25 1012.2 1013.4      
Jun 08 06:56 ENE 15 16.09 Clear CLR 19 14     75%     1012.5 1013.8      
Jun 08 01:56 E 9 16.09 Cloudy BKN020 BKN026 OVC036 20 18     90%     1011.2 1012.2      
Jun 07 11:56 NE 21 16.09 Cloudy OVC021 24 19     74%   25 1009.5 1010.6      
Jun 06 10:52 NE 9 16.09 Mostly Cloudy BKN014 BKN039 25 22     83%   26 1009.2        
Jun 06 10:19 N 8 16.09 Mostly Cloudy SCT011 BKN016 BKN024 24 22     89%   25 1009.8        
Jun 06 04:38 SSE 5 16.09 Cloudy SCT002 OVC100 21 21     100%     1009.8        
Jun 05 22:56 SE 8 16.09 Light Rain SCT026 BKN036 OVC085 23 22     96%   24 1011.2 1012.1 0    
Jun 05 16:56 SW 13 16.09 Partly Cloudy FEW019 SCT075 SCT100 26 22     77%   28 1010.2 1011.2